Trenton, NJ

7:16 PM EDT on April 24, 2018 (GMT -0400)
Trenton Mercer

Weather History for KTTN - October, 2014

Change the Weather History Date:

Saturday, October 4, 2014

  Actual Average Record
Temperature  
Mean Temperature 59 °F 59 °F  
Max Temperature 70 °F 69 °F 86 °F (2013)
Min Temperature 47 °F 48 °F 32 °F (1996)
Degree Days  
Heating Degree Days 6 7  
Month to date heating degree days 9 26  
Since 1 July heating degree days 57 91  
Cooling Degree Days 0 1  
Month to date cooling degree days 0 4  
Year to date cooling degree days 916 959  
Growing Degree Days 9 (Base 50)    
Moisture  
Dew Point 55 °F    
Average Humidity 72    
Maximum Humidity 97    
Minimum Humidity 46    
Precipitation  
Precipitation 0.31 in 0.15 in 0.96 in (1927)
Month to date precipitation 0.36 0.61  
Year to date precipitation 32.87 35.86  
Sea Level Pressure  
Sea Level Pressure 29.63 in    
Wind  
Wind Speed 10 mph (SW)    
Max Wind Speed 20 mph    
Max Gust Speed 32 mph    
Visibility 8 miles    
Events Rain    
T = Trace of Precipitation, MM = Missing Value Source: NWS Daily Summary

Daily Weather History Graph

Daily Weather History Graph

Search for Another Location

Airport or City:

Astronomy

Oct. 04, 2014 Rise Set
Actual Time 6:58 AM EDT 6:36 PM EDT
Civil Twilight 6:31 AM EDT 7:03 PM EDT
Nautical Twilight 5:59 AM EDT 7:35 PM EDT
Astronomical Twilight 5:28 AM EDT 8:06 PM EDT
Moon 4:12 PM EDT (10/4) 2:23 AM EDT (10/4)
Length of Visible Light 12h 32m
Length of Day
11h 38m
Waxing Gibbous, 81% of the Moon is Illuminated
Oct 4
Waxing Gibbous
Oct 8
Full
Oct 15
Last Quarter
Oct 23
New
Oct 30
First Quarter

Hourly Weather History & Observations

Time (EDT) Temp. Dew Point Humidity Pressure Visibility Wind Dir Wind Speed Gust Speed Precip Events Conditions
12:05 AM 59.0 °F 55.0 °F 87% 29.82 in 6.0 mi ESE 6.9 mph - 0.00 in Rain Light Rain
12:53 AM 59.0 °F 55.9 °F 90% 29.78 in 8.0 mi SE 5.8 mph - 0.01 in Rain Light Rain
1:53 AM 59.0 °F 55.9 °F 90% 29.75 in 6.0 mi ESE 8.1 mph - 0.04 in Rain Light Rain
2:37 AM 59.0 °F 57.0 °F 93% 29.74 in 10.0 mi SE 8.1 mph - 0.02 in Rain Light Rain
2:45 AM 60.1 °F 57.0 °F 90% 29.73 in 10.0 mi SE 8.1 mph - 0.03 in   Overcast
2:53 AM 60.1 °F 57.0 °F 90% 29.71 in 6.0 mi SE 8.1 mph - 0.03 in Rain Light Rain
3:05 AM 60.1 °F 57.9 °F 93% 29.72 in 5.0 mi SE 8.1 mph - 0.00 in Rain Light Rain
3:34 AM 60.1 °F 57.9 °F 93% 29.70 in 2.5 mi SE 10.4 mph - 0.04 in Rain Rain
3:53 AM 61.0 °F 59.0 °F 93% 29.67 in 4.0 mi SE 11.5 mph - 0.07 in Rain Light Rain
4:09 AM 61.0 °F 59.0 °F 93% 29.67 in 2.0 mi SE 13.8 mph - 0.08 in Rain Heavy Rain
4:20 AM 61.0 °F 59.0 °F 93% 29.67 in 4.0 mi SE 18.4 mph 24.2 mph 0.09 in Rain Light Rain
4:35 AM 62.1 °F 60.1 °F 93% 29.67 in 8.0 mi SSE 13.8 mph 20.7 mph 0.09 in Rain Light Rain
4:53 AM 62.1 °F 60.1 °F 93% 29.65 in 7.0 mi SSE 12.7 mph - 0.10 in Rain Light Rain
5:53 AM 64.0 °F 61.0 °F 90% 29.62 in 5.0 mi SSE 12.7 mph - 0.00 in   Overcast
6:10 AM 64.0 °F 62.1 °F 93% 29.63 in 7.0 mi SE 12.7 mph - 0.00 in   Overcast
6:53 AM 64.9 °F 63.0 °F 93% 29.61 in 8.0 mi SSE 9.2 mph - 0.00 in   Overcast
7:53 AM 66.0 °F 64.0 °F 93% 29.60 in 5.0 mi South 10.4 mph - 0.01 in   Overcast
8:53 AM 66.9 °F 64.0 °F 90% 29.57 in 4.0 mi South 6.9 mph - 0.01 in Rain Light Rain
9:53 AM 66.9 °F 64.9 °F 93% 29.56 in 6.0 mi South 8.1 mph - 0.01 in   Overcast
10:29 AM 66.9 °F 64.0 °F 90% 29.57 in 1.8 mi West 6.9 mph - 0.03 in Rain Heavy Rain
10:36 AM 66.9 °F 64.0 °F 90% 29.57 in 2.5 mi Variable 4.6 mph - 0.04 in Rain Light Rain
10:39 AM 66.9 °F 64.9 °F 93% 29.57 in 4.0 mi West 5.8 mph - 0.04 in Rain Light Rain
10:53 AM 66.9 °F 64.0 °F 90% 29.55 in 8.0 mi West 8.1 mph - 0.04 in Rain Light Rain
11:08 AM 64.0 °F 60.1 °F 87% 29.57 in 10.0 mi WNW 12.7 mph 19.6 mph 0.00 in Rain Light Rain
11:17 AM 64.0 °F 60.1 °F 87% 29.57 in 10.0 mi WNW 10.4 mph - 0.00 in   Overcast
11:36 AM 64.9 °F 61.0 °F 87% 29.57 in 10.0 mi NW 9.2 mph - 0.00 in   Overcast
11:44 AM 64.0 °F 60.1 °F 87% 29.57 in 10.0 mi NW 9.2 mph 18.4 mph 0.00 in   Overcast
11:53 AM 64.0 °F 60.1 °F 87% 29.55 in 10.0 mi NW 10.4 mph - 0.00 in   Overcast
12:46 PM 66.0 °F 57.9 °F 75% 29.55 in 10.0 mi NW 9.2 mph - 0.00 in   Overcast
12:53 PM 66.9 °F 59.0 °F 76% 29.53 in 10.0 mi NW 9.2 mph - 0.00 in   Overcast
1:53 PM 66.9 °F 54.0 °F 63% 29.53 in 10.0 mi West 12.7 mph - N/A   Overcast
2:53 PM 68.0 °F 51.1 °F 55% 29.54 in 10.0 mi West 10.4 mph 19.6 mph N/A   Mostly Cloudy
3:53 PM 68.0 °F 50.0 °F 52% 29.55 in 10.0 mi WNW 9.2 mph - N/A   Overcast
4:53 PM 66.0 °F 50.0 °F 56% 29.56 in 10.0 mi WNW 10.4 mph 19.6 mph N/A   Mostly Cloudy
5:53 PM 62.1 °F 45.0 °F 53% 29.59 in 10.0 mi WNW 12.7 mph 19.6 mph N/A   Partly Cloudy
6:53 PM 59.0 °F 45.0 °F 60% 29.61 in 10.0 mi WNW 9.2 mph - N/A   Clear
7:53 PM 57.0 °F 42.1 °F 57% 29.63 in 10.0 mi WNW 12.7 mph 20.7 mph N/A   Clear
8:53 PM 55.0 °F 37.9 °F 53% 29.67 in 10.0 mi WNW 6.9 mph - N/A   Clear
9:53 PM 53.1 °F 33.1 °F 47% 29.70 in 10.0 mi NW 17.3 mph 32.2 mph N/A   Clear
10:53 PM 50.0 °F 30.0 °F 46% 29.73 in 10.0 mi WNW 11.5 mph 23.0 mph N/A   Clear
11:53 PM 48.9 °F 30.0 °F 48% 29.73 in 10.0 mi WNW 12.7 mph 18.4 mph N/A   Clear